Other Public Products
Issued by NWS Charleston, SC

Current Version | Previous Version | Graphics & Text | Print | Product List | Glossary On
Versions: 1 2 3 4 5 6 7 8 9 10 11 12 13 14 15 16 17 18 19 20 21 22 23 24 25 26 27 28 29 30 31 32 33 34 35 36 37 38 39 40 41 42 43 44 45 46 47 48 49 50
839
FPUS82 KCHS 252027
OPUCHS

TEST...KCHS/KSAV Gateway Observations...TEST
National Weather Service Charleston SC
400 PM EDT TUE JUL 25 2017

NOTE: "fair" indicates few or no clouds below 12,000 feet with no
significant weather and/or obstructions to visibility.

SCZ050-WAZ558-NCZ071-TXZ119-213-PAZ071-DCZ001-FLZ074-172-MI076-
NYZ176-178-MAZ016-IL014-TNZ027-NJZ106-GAZ044-MD014-252100-

...Gateway Observations for Charleston International...

CITY           SKY/WX    TMP DP  RH WIND       PRES   REMARKS
Chas Airport   PTSUNNY   85  74  69 S9        30.03F THUNDER HX  92
Seattle        MOSUNNY   78  52  40 W9        30.04S
Charlotte      CLOUDY    93  63  36 N7        30.07F HX  94
Dallas DFW     MOSUNNY   95  72  47 S10G21    30.02F HX 103
Dallas Love    PTSUNNY   95  71  45 S14       30.04F HX 102
Philladelphia  CLOUDY    77  62  59 E6        30.10R
Wash National  PTSUNNY   80  63  55 N15       30.12R
Baltimore      PTSUNNY   78  62  57 NW8       30.11R
Miami          CLOUDY    88  76  67 CALM      30.12R THUNDER HX  99
Detroit        PTSUNNY   78  54  43 SE7       30.22R
Newark         PTSUNNY   72  60  66 N7        30.12R
Laguardia      CLOUDY    69  61  75 NE9       30.13R
J F K          CLOUDY    70  63  78 CALM      30.13R
Boston Logan   PTSUNNY   64  57  78 E10       30.16R
Ft. Lauderdale PTSUNNY   87  76  69 SW6       30.11R HX  97
Chicago O`Hare PTSUNNY   81  54  39 S8        30.18S
Chicago Midway MOSUNNY   81  55  40 SE8       30.18F
Houston Bush   PTSUNNY   93  72  50 S9        30.08F HX 101
Houston Hobby  CLOUDY    93  76  57 SE10      30.08F HX 105
Nashville      PTSUNNY   95  69  42 VRB6      30.08F HX 100
Atlanta        PTSUNNY   88  73  61 W7        30.09S HX  95

$$

GAZ044-118-TXZ119-213-NCZ071-DCZ001-MDZ014-506-PAZ021-071-NJZ106-
NYZ176-178-MAZ106-OHZ011-021-055-MIZ076-KYZ091-ILZ014-INZ047-
MNZ060-ONZ431-252100-

...Gateway Observations for Savannah International...

CITY           SKY/WX    TMP DP  RH WIND       PRES   REMARKS
Savannah Arpt  CLOUDY    84  76  76 SW7       30.05S THUNDER HX  93
Atlanta        PTSUNNY   88  73  61 W7        30.09S HX  95
Charlotte      CLOUDY    93  63  36 N7        30.07F HX  94
Dallas DFW     MOSUNNY   95  72  47 S10G21    30.02F HX 103
Houston Bush   PTSUNNY   93  72  50 S9        30.08F HX 101
Wash National  PTSUNNY   80  63  55 N15       30.12R
Wash Dulles    PTSUNNY   78  61  55 NW9       30.13S
Baltimore      PTSUNNY   78  62  57 NW8       30.11R
Philadelphia   CLOUDY    77  62  59 E6        30.10R
Newark         PTSUNNY   72  60  66 N7        30.12R
Laguardia      CLOUDY    69  61  75 NE9       30.13R
J F K          CLOUDY    70  63  78 CALM      30.13R
Boston         PTSUNNY   64  57  78 E10       30.16R
Pittsburg      PTSUNNY   73  58  59 W3        30.20F
Akron          MOSUNNY   77  58  51 VRB7      30.21S
Cleveland      PTSUNNY   76  61  59 N9        30.23S
Cincinnati     MOSUNNY   81  59  47 MISG      30.17S
Columbus       MOSUNNY   74  59  59 SE5       30.20S
Detroit        PTSUNNY   78  54  43 SE7       30.22R
Chicago O`Hare PTSUNNY   81  54  39 S8        30.18S
Minneapolis    PTSUNNY   81  67  62 S13G23    29.96F
Indianapolis   MOSUNNY   80  57  45 E7        30.17F
Toronto Canada PTSUNNY   72  55  56 SE10      30.20S

$$




USA.gov is the U.S. government's official web portal to all federal, state and local government web resources and services.